Date String (YYYY-MM-DD hh:mm:ss) UTC,Instrument flags,Ambient pressure (hPa),Sample flow (lpm),Bypass flow (lpm),Sample temperature (°C),Ambient temperature (°C),ASC tube jacket temperature (°C),LED temperature (°C),Box temperature (°C),Sample RH (%),Span deviation,Mass concentration (μg/m³),Mass concentration (μg/m³),Mass concentration (μg/m³)
DateTimeUTC,F1_M11,P_M11,Q1_M11,Q2_M11,T1_M11,T2_M11,T3_M11,T4_M11,T5_M11,U1_M11,ZSPAN_M11,X2_M11,X0_M11,X1_M11
2022-05-31 01:00:00,,0819.1,5.01,0.00,27.6,26.6,00.0,36.4,29.4,11.0,0000.0,0000.61,0002.85,0000.38
2022-05-31 01:01:00,,0819.1,4.99,0.00,27.6,26.5,00.0,36.4,29.4,10.7,0000.0,0000.59,0002.85,0000.39
2022-05-31 01:02:00,,0819.2,5.01,0.00,27.6,26.5,00.0,36.4,29.4,10.9,0000.0,0000.61,0002.91,0000.39
2022-05-31 01:03:00,,0819.2,5.00,0.00,27.6,26.5,00.0,36.4,29.4,10.8,0000.0,0000.62,0002.96,0000.40
2022-05-31 01:04:00,,0819.3,5.00,0.00,27.6,26.5,00.0,36.4,29.4,10.3,0000.0,0000.66,0003.04,0000.40
2022-05-31 01:05:00,,0819.2,5.00,0.00,27.6,26.5,00.0,36.4,29.4,10.7,0000.0,0000.70,0002.66,0000.40
2022-05-31 01:06:00,,0819.3,4.99,0.00,27.6,26.5,00.0,36.4,29.4,10.5,0000.0,0000.75,0001.57,0000.40
2022-05-31 01:07:00,,0819.3,5.01,0.00,27.6,26.5,00.0,36.4,29.4,10.3,0000.0,0000.77,0001.59,0000.40
2022-05-31 01:08:00,,0819.2,5.00,0.00,27.6,26.5,00.0,36.4,29.4,10.2,0000.0,0000.79,0001.59,0000.40
2022-05-31 01:09:00,,0819.2,5.00,0.00,27.6,26.5,00.0,36.4,29.4,10.6,0000.0,0000.80,0001.67,0000.40
2022-05-31 01:10:00,,0819.2,4.99,0.00,27.6,26.5,00.0,36.4,29.4,10.7,0000.0,0000.82,0001.90,0000.40
2022-05-31 01:11:00,,0819.2,4.99,0.00,27.6,26.5,00.0,36.4,29.4,10.9,0000.0,0000.83,0001.94,0000.40
2022-05-31 01:12:00,,0819.2,5.01,0.00,27.6,26.5,00.0,36.5,29.5,10.7,0000.0,0000.84,0001.89,0000.41
2022-05-31 01:13:00,,0819.2,5.01,0.00,27.6,26.5,00.0,36.5,29.4,10.6,0000.0,0000.83,0001.81,0000.41
2022-05-31 01:14:00,,0819.3,5.00,0.00,27.6,26.5,00.0,36.5,29.4,10.7,0000.0,0000.80,0001.74,0000.41
2022-05-31 01:15:00,,0819.2,5.00,0.00,27.6,26.5,00.0,36.5,29.5,10.8,0000.0,0000.80,0001.73,0000.42
2022-05-31 01:16:00,,0819.2,5.00,0.00,27.6,26.5,00.0,36.5,29.5,11.0,0000.0,0000.80,0001.64,0000.41
2022-05-31 01:17:00,,0819.2,4.99,0.00,27.6,26.5,00.0,36.5,29.4,10.8,0000.0,0000.75,0001.49,0000.41
2022-05-31 01:18:00,,0819.2,5.00,0.00,27.6,26.4,00.0,36.5,29.4,10.6,0000.0,0000.75,0001.51,0000.43
2022-05-31 01:19:00,,0819.2,5.00,0.00,27.6,26.4,00.0,36.5,29.4,10.6,0000.0,0000.76,0001.59,0000.43
2022-05-31 01:20:00,,0819.2,5.00,0.00,27.6,26.4,00.0,36.5,29.4,10.8,0000.0,0000.77,0001.65,0000.43
2022-05-31 01:21:00,,0819.2,4.99,0.00,27.5,26.4,00.0,36.5,29.4,10.7,0000.0,0000.77,0001.49,0000.44
2022-05-31 01:22:00,,0819.2,4.99,0.00,27.5,26.4,00.0,36.5,29.4,10.6,0000.0,0000.79,0001.49,0000.44
2022-05-31 01:23:00,,0819.2,4.99,0.00,27.5,26.3,00.0,36.5,29.4,10.8,0000.0,0000.83,0001.62,0000.44
2022-05-31 01:24:00,,0819.2,5.00,0.00,27.5,26.3,00.0,36.5,29.3,11.1,0000.0,0000.83,0001.63,0000.44
2022-05-31 01:25:00,,0819.2,5.02,0.00,27.5,26.3,00.0,36.5,29.3,11.1,0000.0,0000.84,0001.69,0000.45
2022-05-31 01:26:00,,0819.2,5.02,0.00,27.5,26.3,00.0,36.4,29.3,11.4,0000.0,0000.86,0001.78,0000.44
2022-05-31 01:27:00,,0819.2,4.99,0.00,27.5,26.3,00.0,36.4,29.3,11.1,0000.0,0000.87,0001.82,0000.45
2022-05-31 01:28:00,,0819.2,5.00,0.00,27.5,26.3,00.0,36.4,29.3,11.2,0000.0,0000.92,0001.94,0000.45
2022-05-31 01:29:00,,0819.2,5.00,0.00,27.5,26.2,00.0,36.4,29.3,11.1,0000.0,0000.95,0002.00,0000.45
2022-05-31 01:30:00,,0819.2,4.99,0.00,27.4,26.2,00.0,36.4,29.3,11.1,0000.0,0000.94,0001.96,0000.45
2022-05-31 01:31:00,,0819.3,5.01,0.00,27.4,26.2,00.0,36.4,29.2,11.2,0000.0,0000.96,0001.97,0000.45
2022-05-31 01:32:00,,0819.3,4.99,0.00,27.4,26.2,00.0,36.4,29.2,11.3,0000.0,0000.97,0002.01,0000.44
2022-05-31 01:33:00,,0819.3,5.00,0.00,27.4,26.2,00.0,36.4,29.2,11.4,0000.0,0000.93,0001.91,0000.44
2022-05-31 01:34:00,,0819.4,4.99,0.00,27.4,26.2,00.0,36.4,29.2,11.4,0000.0,0000.88,0001.78,0000.43
2022-05-31 01:35:00,,0819.3,5.01,0.00,27.4,26.1,00.0,36.4,29.2,11.5,0000.0,0000.95,0002.02,0000.43
2022-05-31 01:36:00,,0819.3,5.00,0.00,27.4,26.1,00.0,36.4,29.2,11.9,0000.0,0001.00,0004.01,0000.43
2022-05-31 01:37:00,,0819.1,5.00,0.00,27.4,26.1,00.0,36.4,29.2,11.9,0000.0,0001.00,0004.56,0000.43
2022-05-31 01:38:00,,0819.1,4.99,0.00,27.3,26.1,00.0,36.4,29.2,12.0,0000.0,0001.01,0004.79,0000.43
2022-05-31 01:39:00,,0819.0,5.01,0.00,27.3,26.1,00.0,36.4,29.2,12.2,0000.0,0000.99,0004.87,0000.43
2022-05-31 01:40:00,,0819.1,5.00,0.00,27.3,26.0,00.0,36.3,29.1,12.1,0000.0,0001.01,0004.92,0000.43
2022-05-31 01:41:00,,0819.4,5.00,0.00,27.3,26.0,00.0,36.3,29.1,11.9,0000.0,0001.05,0005.28,0000.43
2022-05-31 01:42:00,,0819.2,5.00,0.00,27.3,26.0,00.0,36.3,29.1,12.0,0000.0,0001.02,0005.36,0000.43
2022-05-31 01:43:00,,0819.2,4.99,0.00,27.3,26.0,00.0,36.3,29.1,12.1,0000.0,0001.02,0005.35,0000.44
2022-05-31 01:44:00,,0819.4,5.00,0.00,27.2,26.0,00.0,36.3,29.1,12.3,0000.0,0001.10,0005.61,0000.45
2022-05-31 01:45:00,,0819.4,5.00,0.00,27.2,25.9,00.0,36.3,29.0,12.6,0000.0,0001.16,0005.84,0000.46
2022-05-31 01:46:00,,0819.2,4.99,0.00,27.2,25.9,00.0,36.3,29.0,12.8,0000.0,0001.10,0005.68,0000.46
2022-05-31 01:47:00,,0819.1,5.00,0.00,27.2,25.9,00.0,36.3,29.0,12.8,0000.0,0001.07,0004.04,0000.45
2022-05-31 01:48:00,,0819.2,5.00,0.00,27.2,25.9,00.0,36.2,29.0,13.0,0000.0,0001.08,0003.18,0000.45
2022-05-31 01:49:00,,0819.3,5.00,0.00,27.1,25.9,00.0,36.2,29.0,13.1,0000.0,0001.05,0002.93,0000.45
2022-05-31 01:50:00,,0819.3,5.00,0.00,27.1,25.8,00.0,36.2,29.0,13.2,0000.0,0001.04,0002.85,0000.44
2022-05-31 01:51:00,,0819.4,5.00,0.00,27.1,25.8,00.0,36.2,28.9,13.1,0000.0,0001.00,0002.91,0000.43
2022-05-31 01:52:00,,0819.5,5.00,0.00,27.1,25.8,00.0,36.2,28.9,13.3,0000.0,0000.94,0002.54,0000.43
2022-05-31 01:53:00,,0819.4,5.00,0.00,27.1,25.8,00.0,36.2,28.9,13.5,0000.0,0000.93,0002.30,0000.43
2022-05-31 01:54:00,,0819.4,5.01,0.00,27.1,25.8,00.0,36.2,28.9,13.3,0000.0,0000.97,0002.42,0000.42
2022-05-31 01:55:00,,0819.5,5.00,0.00,27.1,25.8,00.0,36.1,28.9,13.4,0000.0,0000.93,0002.29,0000.41
2022-05-31 01:56:00,,0819.6,5.00,0.00,27.1,25.7,00.0,36.1,28.8,13.5,0000.0,0000.88,0002.08,0000.41
2022-05-31 01:57:00,,0819.4,5.00,0.00,27.1,25.7,00.0,36.1,28.9,13.7,0000.0,0000.87,0002.05,0000.41
2022-05-31 01:58:00,,0819.4,4.99,0.00,27.1,25.7,00.0,36.1,28.9,13.6,0000.0,0000.82,0001.90,0000.40
2022-05-31 01:59:00,,0819.3,5.01,0.00,27.1,25.7,00.0,36.1,28.9,13.5,0000.0,0000.78,0001.79,0000.40
